When you browse on this site, cookies collect data to enhance your experience and personalize the content and advertising you see.
Visit our Privacy Policy to learn more. By continuing to use the site, you agree to this use of cookies and data.
  • Em Portugal
  • Lista de países
  • Para 7 dias
  • Temperatura da água
  • Mapas de satélite
  • Mapa do tempo
  • Widgets de tempo
  • user-avatar
    Iniciar Sessão

    Previsão horária em Folkern

    Hoje, 19 Julho, Sexta-feira

    Tempo Temperatura Precipitação Vento Pressão Humidade
    00:00 +12°C° 0.2 mm 7 m/s 751 mmHg 87%
    01:00 +12°C° 0 mm 7 m/s 751 mmHg 86%
    02:00 +12°C° 0 mm 7 m/s 751 mmHg 86%
    03:00 +12°C° 0 mm 7 m/s 751 mmHg 85%
    04:00 +12°C° 0 mm 7 m/s 751 mmHg 86%
    05:00 +12°C° 0 mm 7 m/s 751 mmHg 87%
    06:00 +12°C° 0 mm 7 m/s 751 mmHg 87%
    07:00 +12°C° 0.1 mm 7 m/s 751 mmHg 88%
    08:00 +13°C° 0.1 mm 6 m/s 751 mmHg 88%
    09:00 +13°C° 0.1 mm 6 m/s 751 mmHg 88%
    10:00 +13°C° 0 mm 6 m/s 751 mmHg 88%
    11:00 +13°C° 0 mm 5 m/s 751 mmHg 87%
    12:00 +13°C° 0 mm 4 m/s 751 mmHg 87%
    13:00 +13°C° 0 mm 4 m/s 751 mmHg 86%
    14:00 +14°C° 0 mm 3 m/s 751 mmHg 85%
    15:00 +14°C° 0 mm 3 m/s 751 mmHg 85%
    16:00 +15°C° 0 mm 2 m/s 750 mmHg 85%
    17:00 +15°C° 0 mm 1 m/s 750 mmHg 85%
    18:00 +15°C° 0 mm 1 m/s 750 mmHg 85%
    19:00 +15°C° 0 mm 1 m/s 750 mmHg 84%
    20:00 +15°C° 0 mm 1 m/s 750 mmHg 84%
    21:00 +15°C° 0 mm 1 m/s 750 mmHg 84%
    22:00 +14°C° 0 mm 2 m/s 750 mmHg 84%
    23:00 +14°C° 0 mm 2 m/s 750 mmHg 84%

    Amanhã, 20 Julho, Sábado

    Tempo Temperatura Precipitação Vento Pressão Humidade
    00:00 +14°C° 0 mm 2 m/s 750 mmHg 84%
    01:00 +14°C° 0 mm 2 m/s 750 mmHg 85%
    02:00 +14°C° 0 mm 2 m/s 750 mmHg 85%
    03:00 +14°C° 0 mm 2 m/s 750 mmHg 85%
    04:00 +14°C° 0 mm 2 m/s 750 mmHg 85%
    05:00 +14°C° 0 mm 2 m/s 750 mmHg 85%
    06:00 +14°C° 0 mm 2 m/s 750 mmHg 85%
    07:00 +14°C° 0 mm 2 m/s 751 mmHg 84%
    08:00 +14°C° 0 mm 2 m/s 751 mmHg 84%
    09:00 +15°C° 0 mm 2 m/s 751 mmHg 83%
    10:00 +15°C° 0 mm 2 m/s 751 mmHg 83%
    11:00 +14°C° 0 mm 3 m/s 752 mmHg 83%
    12:00 +14°C° 0 mm 3 m/s 752 mmHg 82%
    13:00 +14°C° 0 mm 3 m/s 752 mmHg 83%
    14:00 +14°C° 0 mm 3 m/s 753 mmHg 83%
    15:00 +14°C° 0 mm 3 m/s 753 mmHg 83%
    16:00 +14°C° 0 mm 4 m/s 753 mmHg 84%
    17:00 +14°C° 0 mm 4 m/s 754 mmHg 84%
    18:00 +14°C° 0 mm 5 m/s 754 mmHg 85%
    19:00 +14°C° 0 mm 5 m/s 754 mmHg 86%
    20:00 +14°C° 0 mm 5 m/s 755 mmHg 86%
    21:00 +14°C° 0 mm 5 m/s 755 mmHg 87%
    22:00 +14°C° 0 mm 5 m/s 755 mmHg 87%
    23:00 +14°C° 0 mm 6 m/s 756 mmHg 86%

    Depois de amanhã, 21 Julho, Domingo

    Tempo Temperatura Precipitação Vento Pressão Humidade
    00:00 +14°C° 0 mm 6 m/s 756 mmHg 86%
    01:00 +14°C° 0.1 mm 6 m/s 756 mmHg 86%
    02:00 +14°C° 0.1 mm 6 m/s 756 mmHg 87%
    03:00 +14°C° 0.1 mm 6 m/s 756 mmHg 88%
    04:00 +14°C° 0.2 mm 7 m/s 756 mmHg 88%
    05:00 +14°C° 0.2 mm 7 m/s 756 mmHg 87%
    06:00 +14°C° 0.2 mm 7 m/s 756 mmHg 87%
    07:00 +14°C° 0.2 mm 7 m/s 756 mmHg 86%
    08:00 +13°C° 0.2 mm 8 m/s 756 mmHg 85%
    09:00 +13°C° 0.2 mm 8 m/s 756 mmHg 84%
    10:00 +13°C° 0.5 mm 8 m/s 756 mmHg 87%
    11:00 +12°C° 0.5 mm 8 m/s 756 mmHg 90%
    12:00 +12°C° 0.5 mm 8 m/s 756 mmHg 93%
    13:00 +12°C° 1.6 mm 10 m/s 755 mmHg 92%
    14:00 +12°C° 1.6 mm 12 m/s 755 mmHg 92%
    15:00 +13°C° 1.6 mm 14 m/s 755 mmHg 91%
    16:00 +13°C° 0.7 mm 13 m/s 754 mmHg 92%
    17:00 +13°C° 0.7 mm 11 m/s 754 mmHg 93%
    18:00 +13°C° 0.7 mm 10 m/s 754 mmHg 94%
    19:00 +13°C° 0.1 mm 10 m/s 754 mmHg 93%
    20:00 +13°C° 0.1 mm 10 m/s 754 mmHg 92%
    21:00 +13°C° 0.1 mm 10 m/s 755 mmHg 91%
    22:00 +13°C° 0.2 mm 9 m/s 754 mmHg 91%
    23:00 +13°C° 0.2 mm 8 m/s 754 mmHg 92%

    22 Julho, Segunda-feira

    Tempo Temperatura Precipitação Vento Pressão Humidade
    00:00 +12°C° 0.2 mm 7 m/s 754 mmHg 92%
    01:00 +12°C° 2 mm 7 m/s 754 mmHg 94%
    02:00 +13°C° 2 mm 6 m/s 753 mmHg 95%
    03:00 +13°C° 2 mm 5 m/s 753 mmHg 97%
    04:00 +13°C° 2.2 mm 8 m/s 752 mmHg 97%
    05:00 +13°C° 2.2 mm 10 m/s 752 mmHg 96%
    06:00 +14°C° 2.2 mm 13 m/s 752 mmHg 96%
    07:00 +14°C° 2.2 mm 13 m/s 752 mmHg 95%
    08:00 +14°C° 2.2 mm 14 m/s 752 mmHg 94%
    09:00 +14°C° 2.2 mm 15 m/s 752 mmHg 93%
    10:00 +14°C° 0.3 mm 14 m/s 753 mmHg 93%
    11:00 +14°C° 0.3 mm 14 m/s 753 mmHg 92%
    12:00 +14°C° 0.3 mm 14 m/s 753 mmHg 91%
    13:00 +14°C° 0.6 mm 14 m/s 754 mmHg 91%
    14:00 +14°C° 0.6 mm 13 m/s 754 mmHg 91%
    15:00 +15°C° 0.6 mm 13 m/s 754 mmHg 90%
    16:00 +15°C° 0.3 mm 13 m/s 754 mmHg 91%
    17:00 +14°C° 0.3 mm 12 m/s 754 mmHg 91%
    18:00 +14°C° 0.3 mm 12 m/s 754 mmHg 91%
    19:00 +14°C° 0.2 mm 12 m/s 755 mmHg 92%
    20:00 +14°C° 0.2 mm 12 m/s 755 mmHg 92%
    21:00 +14°C° 0.2 mm 11 m/s 755 mmHg 93%
    22:00 +14°C° 0.1 mm 11 m/s 755 mmHg 93%
    23:00 +14°C° 0.1 mm 10 m/s 756 mmHg 94%

    23 Julho, Terça-feira

    Tempo Temperatura Precipitação Vento Pressão Humidade
    00:00 +14°C° 0.1 mm 10 m/s 756 mmHg 94%
    01:00 +14°C° 0.1 mm 10 m/s 756 mmHg 94%
    02:00 +15°C° 0.1 mm 9 m/s 756 mmHg 95%
    03:00 +15°C° 0.1 mm 9 m/s 756 mmHg 95%
    04:00 +15°C° 0.4 mm 9 m/s 756 mmHg 95%
    05:00 +15°C° 0.4 mm 9 m/s 756 mmHg 95%
    06:00 +15°C° 0.4 mm 8 m/s 756 mmHg 95%
    07:00 +14°C° 2 mm 10 m/s 756 mmHg 95%
    08:00 +14°C° 2 mm 11 m/s 756 mmHg 95%
    09:00 +13°C° 2 mm 12 m/s 756 mmHg 96%
    10:00 +14°C° 2 mm 11 m/s 756 mmHg 94%
    11:00 +14°C° 2 mm 11 m/s 756 mmHg 93%
    12:00 +14°C° 2 mm 10 m/s 756 mmHg 91%
    13:00 +15°C° 0.1 mm 9 m/s 756 mmHg 91%
    14:00 +15°C° 0.1 mm 9 m/s 756 mmHg 90%
    15:00 +15°C° 0.1 mm 8 m/s 756 mmHg 90%
    16:00 +15°C° 0.2 mm 8 m/s 755 mmHg 89%
    17:00 +15°C° 0.2 mm 8 m/s 755 mmHg 88%
    18:00 +16°C° 0.2 mm 7 m/s 755 mmHg 87%
    19:00 +15°C° 0.1 mm 7 m/s 755 mmHg 87%
    20:00 +15°C° 0.1 mm 7 m/s 755 mmHg 86%
    21:00 +15°C° 0.1 mm 6 m/s 755 mmHg 86%
    22:00 +15°C° 1.5 mm 6 m/s 755 mmHg 89%
    23:00 +15°C° 1.5 mm 6 m/s 755 mmHg 92%

    24 Julho, Quarta-feira

    Tempo Temperatura Precipitação Vento Pressão Humidade
    00:00 +14°C° 1.5 mm 6 m/s 755 mmHg 95%
    01:00 +15°C° 0.9 mm 6 m/s 755 mmHg 95%
    02:00 +15°C° 0.9 mm 5 m/s 755 mmHg 94%
    03:00 +15°C° 0.9 mm 5 m/s 754 mmHg 94%
    04:00 +15°C° 1 mm 5 m/s 754 mmHg 94%
    05:00 +14°C° 1 mm 5 m/s 754 mmHg 95%
    06:00 +14°C° 1 mm 5 m/s 754 mmHg 95%
    07:00 +14°C° 1.2 mm 5 m/s 754 mmHg 95%
    08:00 +14°C° 1.2 mm 5 m/s 754 mmHg 95%
    09:00 +14°C° 1.2 mm 5 m/s 754 mmHg 95%
    10:00 +14°C° 0.8 mm 4 m/s 754 mmHg 95%
    11:00 +14°C° 0.8 mm 4 m/s 753 mmHg 94%
    12:00 +14°C° 0.8 mm 3 m/s 753 mmHg 93%
    13:00 +14°C° 0.3 mm 3 m/s 753 mmHg 92%
    14:00 +16°C° 0.3 mm 2 m/s 752 mmHg 91%
    15:00 +16°C° 0.3 mm 2 m/s 752 mmHg 91%
    16:00 +16°C° 0.6 mm 3 m/s 752 mmHg 91%
    17:00 +15°C° 0.6 mm 4 m/s 752 mmHg 90%
    18:00 +15°C° 0.6 mm 5 m/s 752 mmHg 90%
    19:00 +15°C° 0.1 mm 5 m/s 752 mmHg 92%
    20:00 +15°C° 0.1 mm 5 m/s 752 mmHg 94%
    21:00 +14°C° 0.1 mm 5 m/s 753 mmHg 95%
    22:00 +14°C° 0 mm 4 m/s 753 mmHg 95%
    23:00 +14°C° 0 mm 3 m/s 752 mmHg 95%
    Mostrar mais